Regional Weather Roundup
Issued by NWS

Home | Current Version | Previous Version | Text Only | Print | Product List | Glossary Off
Versions: 1 2 3 4 5 6 7 8 9 10 11 12 13 14 15 16 17 18 19 20 21 22 23 24 25 26 27 28 29 30 31 32 33 34 35 36 37 38 39 40 41 42 43 44 45 46 47 48 49 50

924
ASUS44 KLIX 261610
RWRLA
LOUISIANA WEATHER ROUNDUP
NATIONAL WEATHER SERVICE NEW ORLEANS LA
1000 AM CST WED NOV 26 2014

NOTE: "FAIR" INDICATES FEW OR NO CLOUDS BELOW 12,000 FEET WITH NO
      SIGNIFICANT WEATHER AND/OR OBSTRUCTIONS TO VISIBILITY.
      SKY/WX - SKY CONDITION AND SIGNIFICANT WEATHER.
      TMP - AIR TEMPERATURE.    DP   - DEWPOINT TEMPERATURE.
      RH  - RELATIVE HUMIDITY.  PRES - PRESSURE.
      HX  - HEAT INDEX.         WCI  - WIND CHILL INDEX.

*  THESE STATIONS ARE NOT NWS OR FAA STATIONS AND ARE NOT UNDER
   NWS QUALITY CONTROL.

LAZ040-048-061>063-065-066-069-261700-
SOUTHEAST LOUISIANA

CITY           SKY/WX    TMP DP  RH WIND       PRES   REMARKS
N.O. AUDUBON     N/A     60  38  43 MISG        N/A
N.O. INTL ARPT MOSUNNY   56  35  45 S7        30.29S
N.O. LAKEFRONT SUNNY     54  33  45 CALM      30.30S
N.O. DOWNTOWN* FAIR      55  34  44 CALM      30.29F
SLIDELL        SUNNY     54  31  41 CALM      30.29S
BATON ROUGE    SUNNY     58  38  47 S10       30.25F
BOOTHVILLE     SUNNY     56  36  47 CALM      30.31S
BELLE CHASSE   SUNNY     56  31  38 VRB3      30.29S
BOGALUSA*        N/A     54  33  44 CALM      30.29F
NEW ROADS*     FAIR      56  43  61 S6        30.24F
GONZALES*      FAIR      57  36  45 S6        30.27F
HAMMOND*       SUNNY     55  36  47 S3        30.29F
HOUMA*         NOT AVBL
PORT FOURCHON* SUNNY     57  32  38 CALM      30.33S

$$

LAZ041-044-053-054-261700-
SOUTHWEST LOUISIANA

CITY           SKY/WX    TMP DP  RH WIND       PRES   REMARKS
LAKE CHARLES   SUNNY     63  47  55 SW10G21   30.23F
LAFAYETTE      SUNNY     62  45  53 SW8       30.25S
PATTERSON      SUNNY     61  48  63 SW9       30.30S
SALT POINT       N/A     65  48  54 VRB6      30.27F
NEW IBERIA     SUNNY     63  48  58 S13       30.27S
CHENAULT AIRPK NOT AVBL

$$

LAZ027-028-261700-
CENTRAL LOUISIANA

CITY           SKY/WX    TMP DP  RH WIND       PRES   REMARKS
FORT POLK      SUNNY     59  42  53 SW15G26   30.19F
ALEXANDRIA INT SUNNY     58  43  57 SW15G23   30.17F
ALEXANDRIA     SUNNY     60  41  49 SW16G22   30.19F

$$

LAZ001-002-261700-
NORTHWEST LOUISIANA

CITY           SKY/WX    TMP DP  RH WIND       PRES   REMARKS
SHREVEPORT     MOSUNNY   58  33  39 SW20G29   30.13R
BARKSDALE AFB  SUNNY     58  32  37 W12G21    30.13R
DTN SHREVEPORT SUNNY     57  31  37 SW17      30.13R

$$

LAZ014-016-261700-
NORTHEAST LOUISIANA

CITY           SKY/WX    TMP DP  RH WIND       PRES   REMARKS
MONROE         SUNNY     57  38  48 SW13G23   30.14F
TALLULAH       SUNNY     54  37  52 SW8       30.20S

$$




USA.gov is the U.S. government's official web portal to all federal, state and local government web resources and services.